Location: Chuathbaluk
(61.5726°N, 159.2454°W)
Time: 12:11:39
(UTC+00:00)

N. Korean satellite - Pass Details

Date: 01 November 2020
Orbit: 453 x 503 km, 97.2° (Epoch: 04 December)

Event Time Altitude Azimuth Distance (km) Brightness Sun altitude
Rises 04:27:49 0° 214° (SW) 2,521 10.8 -13.6°
Reaches altitude 10° 04:30:43 10° 241° (WSW) 1,637 10.3 -14.0°
Maximum altitude 04:32:36 14° 274° (W) 1,408 10.2 -14.2°
Drops below altitude 10° 04:34:30 10° 307° (NW) 1,630 10.0 -14.4°
Sets 04:37:23 0° 334° (NNW) 2,503 10.5 -14.8°
